Wrangell, AK

10:17 AM AKST on December 05, 2016 (GMT -0900)
Wrangell

Weather History for PAWG - December, 2012

Change the Weather History Date:

Thursday, December 27, 2012

  Actual Average Record
Temperature  
Mean Temperature 25 °F -  
Max Temperature 33 °F 35 °F 51 °F (1956)
Min Temperature 17 °F 25 °F 5 °F (1955)
Degree Days  
Heating Degree Days 40    
Moisture  
Dew Point 17 °F    
Average Humidity 78    
Maximum Humidity 87    
Minimum Humidity 68    
Precipitation  
Precipitation 0.00 in - - ()
Sea Level Pressure  
Sea Level Pressure 29.84 in    
Wind  
Wind Speed 7 mph (NNW)    
Max Wind Speed 12 mph    
Max Gust Speed -    
Visibility 6 miles    
Events      
Averages and records for this station are not official NWS values.
T = Trace of Precipitation, MM = Missing Value Source: NWS Daily Summary

Daily Weather History Graph

Daily Weather History Graph

Search for Another Location

Airport or City:

Trip Planner

Search our weather history database for the weather conditions in past years. The results will help you decide how hot, cold, wet, or windy it might be!

Date:

Astronomy

Dec. 27, 2012 Rise Set
Actual Time 8:24 AM AKST 3:17 PM AKST
Civil Twilight 7:36 AM AKST 4:05 PM AKST
Nautical Twilight 6:46 AM AKST 4:55 PM AKST
Astronomical Twilight 6:00 AM AKST 5:41 PM AKST
Moon 3:15 PM AKST (12/27) 7:33 AM AKST (12/27)
Length of Visible Light 8h 29m
Length of Day
6h 53m
Full, 100% of the Moon is Illuminated
Dec 27
Full
Dec 28
Full
Jan 4
Last Quarter
Jan 11
New
Jan 18
First Quarter

Hourly Weather History & Observations

Time (AKST) Temp. Windchill Dew Point Humidity Pressure Visibility Wind Dir Wind Speed Gust Speed Precip Events Conditions
12:16 AM 21.2 °F 11.7 °F 12.2 °F 68% 29.97 in 10.0 mi ESE 8.1 mph - N/A   Overcast
12:36 AM 21.2 °F 13.6 °F 12.2 °F 68% 29.97 in 10.0 mi North 5.8 mph - N/A   Overcast
12:56 AM 17.6 °F 12.3 °F 10.4 °F 73% 29.97 in 10.0 mi NNW 3.5 mph - N/A   Overcast
1:16 AM 19.4 °F 11.5 °F 10.4 °F 68% 29.96 in 10.0 mi NNW 5.8 mph - N/A   Overcast
1:36 AM 19.4 °F 11.5 °F 10.4 °F 68% 29.95 in 10.0 mi North 5.8 mph - N/A   Overcast
1:56 AM 19.4 °F 10.4 °F 10.4 °F 68% 29.95 in 10.0 mi North 6.9 mph - N/A   Overcast
2:16 AM 19.4 °F 12.8 °F 10.4 °F 68% 29.94 in 10.0 mi NNW 4.6 mph - N/A   Overcast
2:36 AM 19.4 °F 9.5 °F 10.4 °F 68% 29.94 in 10.0 mi NNW 8.1 mph - N/A   Overcast
2:56 AM 19.4 °F 12.8 °F 10.4 °F 68% 29.93 in 10.0 mi North 4.6 mph - N/A   Overcast
3:16 AM 19.4 °F 11.5 °F 10.4 °F 68% 29.92 in 10.0 mi North 5.8 mph - N/A   Overcast
3:36 AM 19.4 °F 14.3 °F 10.4 °F 68% 29.92 in 10.0 mi North 3.5 mph - N/A   Overcast
3:56 AM 19.4 °F 11.5 °F 10.4 °F 68% 29.92 in 10.0 mi NNW 5.8 mph - N/A   Overcast
4:16 AM 19.4 °F 10.4 °F 10.4 °F 68% 29.91 in 10.0 mi North 6.9 mph - N/A   Overcast
4:36 AM 19.4 °F 11.5 °F 10.4 °F 68% 29.91 in 10.0 mi NNW 5.8 mph - N/A   Overcast
4:56 AM 19.4 °F 11.5 °F 12.2 °F 74% 29.89 in 10.0 mi North 5.8 mph - N/A   Overcast
5:16 AM 19.4 °F 12.8 °F 10.4 °F 68% 29.88 in 10.0 mi NW 4.6 mph - N/A   Overcast
5:36 AM 19.4 °F 12.8 °F 12.2 °F 74% 29.87 in 10.0 mi NNW 4.6 mph - N/A   Overcast
5:56 AM 19.4 °F 10.4 °F 10.4 °F 68% 29.87 in 10.0 mi NNW 6.9 mph - N/A   Overcast
6:16 AM 17.6 °F 5.7 °F 10.4 °F 73% 29.86 in 10.0 mi NNW 10.4 mph - N/A   Overcast
6:36 AM 17.6 °F 5.0 °F 10.4 °F 73% 29.85 in 10.0 mi North 11.5 mph - N/A   Overcast
6:56 AM 19.4 °F 11.5 °F 10.4 °F 68% 29.84 in 10.0 mi NNW 5.8 mph - N/A   Overcast
7:16 AM 19.4 °F 11.5 °F 12.2 °F 74% 29.84 in 10.0 mi NNW 5.8 mph - N/A   Overcast
7:36 AM 19.4 °F 14.3 °F 10.4 °F 68% 29.83 in 10.0 mi West 3.5 mph - N/A   Overcast
7:56 AM 21.2 °F 16.4 °F 14.0 °F 74% 29.81 in 10.0 mi West 3.5 mph - N/A   Overcast
8:16 AM 21.2 °F 12.6 °F 14.0 °F 74% 29.82 in 10.0 mi NNW 6.9 mph - N/A   Overcast
8:36 AM 21.2 °F 10.1 °F 14.0 °F 74% 29.83 in 10.0 mi NW 10.4 mph - N/A   Overcast
8:56 AM 21.2 °F 11.7 °F 14.0 °F 74% 29.84 in 10.0 mi NNW 8.1 mph - N/A   Overcast
9:16 AM 21.2 °F 10.1 °F 14.0 °F 74% 29.85 in 4.0 mi NW 10.4 mph - N/A   Overcast
9:36 AM 21.2 °F 11.7 °F 15.8 °F 80% 29.86 in 2.0 mi NNW 8.1 mph - N/A   Overcast
9:56 AM 21.2 °F 12.6 °F 17.6 °F 86% 29.85 in 1.0 mi North 6.9 mph - N/A   Overcast
10:16 AM 23.0 °F 14.7 °F 19.4 °F 86% 29.84 in 0.5 mi North 6.9 mph - N/A   Overcast
10:36 AM 23.0 °F - 19.4 °F 86% 29.83 in 0.5 mi Calm Calm - N/A   Overcast
10:56 AM 23.0 °F 17.0 °F 19.4 °F 86% 29.82 in 0.5 mi North 4.6 mph - N/A   Overcast
11:16 AM 24.8 °F 17.9 °F 19.4 °F 80% 29.81 in 0.5 mi NW 5.8 mph - N/A   Overcast
11:36 AM 24.8 °F 19.1 °F 19.4 °F 80% 29.81 in 0.5 mi NW 4.6 mph - N/A   Overcast
11:56 AM 24.8 °F 16.1 °F 19.4 °F 80% 29.80 in 0.5 mi NNW 8.1 mph - N/A   Overcast
12:16 PM 24.8 °F 15.3 °F 21.2 °F 86% 29.80 in 0.5 mi NW 9.2 mph - N/A   Overcast
12:36 PM 24.8 °F 15.3 °F 19.4 °F 80% 29.81 in 0.5 mi NNW 9.2 mph - N/A   Overcast
12:56 PM 24.8 °F 17.9 °F 21.2 °F 86% 29.82 in 0.5 mi NNW 5.8 mph - N/A   Overcast
1:16 PM 26.6 °F 20.0 °F 21.2 °F 80% 29.82 in 0.5 mi NNW 5.8 mph - N/A   Overcast
1:36 PM 24.8 °F 16.9 °F 19.4 °F 80% 29.81 in 0.5 mi NNW 6.9 mph - N/A   Overcast
1:56 PM 24.8 °F 19.1 °F 21.2 °F 86% 29.81 in 0.5 mi NW 4.6 mph - N/A   Overcast
2:16 PM 26.6 °F - 21.2 °F 80% 29.80 in 0.5 mi Calm Calm - N/A   Overcast
2:36 PM 28.4 °F 24.6 °F 24.8 °F 86% 29.79 in 0.5 mi SSW 3.5 mph - N/A   Overcast
2:56 PM 33.8 °F 26.4 °F 30.2 °F 87% 29.78 in 2.0 mi East 9.2 mph - N/A   Overcast
3:16 PM 33.8 °F 27.7 °F 30.2 °F 87% 29.78 in 2.0 mi East 6.9 mph - N/A   Overcast
3:36 PM 30.2 °F 23.4 °F 26.6 °F 86% 29.79 in 2.0 mi North 6.9 mph - N/A   Overcast
3:56 PM 26.6 °F 20.0 °F 21.2 °F 80% 29.78 in 2.0 mi WNW 5.8 mph - N/A   Overcast
4:16 PM 24.8 °F 15.3 °F 19.4 °F 80% 29.78 in 2.0 mi NW 9.2 mph - N/A   Overcast
4:36 PM 24.8 °F 16.9 °F 21.2 °F 86% 29.78 in 2.0 mi NNW 6.9 mph - N/A   Overcast
4:56 PM 24.8 °F 16.1 °F 21.2 °F 86% 29.78 in 4.0 mi NNW 8.1 mph - N/A   Overcast
5:16 PM 24.8 °F 15.3 °F 19.4 °F 80% 29.78 in 4.0 mi NW 9.2 mph - N/A   Overcast
5:36 PM 23.0 °F 12.4 °F 17.6 °F 80% 29.79 in 4.0 mi NW 10.4 mph - N/A   Overcast
5:56 PM 21.2 °F 10.9 °F 17.6 °F 86% 29.79 in 3.0 mi NW 9.2 mph - N/A   Overcast
6:16 PM 21.2 °F 10.9 °F 17.6 °F 86% 29.79 in 3.0 mi NNW 9.2 mph - N/A   Overcast
6:36 PM 21.2 °F 10.9 °F 17.6 °F 86% 29.80 in 3.0 mi NW 9.2 mph - N/A   Overcast
6:56 PM 23.0 °F 13.1 °F 17.6 °F 80% 29.80 in 3.0 mi NW 9.2 mph - N/A   Overcast
7:16 PM 23.0 °F 13.9 °F 19.4 °F 86% 29.80 in 3.0 mi NW 8.1 mph - N/A   Overcast
7:36 PM 23.0 °F 13.9 °F 19.4 °F 86% 29.80 in 3.0 mi NNW 8.1 mph - N/A   Overcast
7:56 PM 23.0 °F 14.7 °F 19.4 °F 86% 29.80 in 5.0 mi NW 6.9 mph - N/A   Overcast
8:16 PM 23.0 °F 14.7 °F 19.4 °F 86% 29.80 in 5.0 mi NNW 6.9 mph - N/A   Overcast
8:36 PM 23.0 °F 14.7 °F 19.4 °F 86% 29.81 in 5.0 mi NNW 6.9 mph - N/A   Overcast
8:56 PM 23.0 °F 14.7 °F 17.6 °F 80% 29.81 in 5.0 mi NNW 6.9 mph - N/A   Overcast
9:16 PM 24.8 °F 19.1 °F 19.4 °F 80% 29.82 in 5.0 mi NNW 4.6 mph - N/A   Overcast
9:36 PM 23.0 °F 14.7 °F 19.4 °F 86% 29.82 in 5.0 mi NW 6.9 mph - N/A   Overcast
9:56 PM 23.0 °F 14.7 °F 19.4 °F 86% 29.83 in 7.0 mi North 6.9 mph - N/A   Overcast
10:16 PM 24.8 °F 17.9 °F 21.2 °F 86% 29.83 in 7.0 mi North 5.8 mph - N/A   Overcast
10:36 PM 24.8 °F 16.1 °F 19.4 °F 80% 29.83 in 7.0 mi NNW 8.1 mph - N/A   Overcast
10:56 PM 24.8 °F 16.9 °F 21.2 °F 86% 29.83 in 7.0 mi NNW 6.9 mph - N/A   Overcast
11:16 PM 24.8 °F 16.9 °F 19.4 °F 80% 29.84 in 7.0 mi NNW 6.9 mph - N/A   Overcast
11:36 PM 24.8 °F 16.9 °F 21.2 °F 86% 29.84 in 7.0 mi North 6.9 mph - N/A   Mostly Cloudy
11:56 PM 24.8 °F 17.9 °F 21.2 °F 86% 29.84 in 7.0 mi NNW 5.8 mph - N/A   Overcast